Location: Meanaryar
(48.4161°N, 4.7315°W)
Time: 10:46:11
(UTC+00:00)

ATLAS CENTAUR R/B - Pass Details

Date: 18 September 2020
Orbit: 479 x 667 km, 64.7° (Epoch: 12 October)

Event Time Altitude Azimuth Distance (km) Brightness Sun altitude
Rises 19:25:26 0° 269° (W) 2,654 6.5 -10.8°
Reaches altitude 10° 19:28:25 10° 293° (WNW) 1,733 5.4 -11.3°
Maximum altitude 19:30:44 15° 330° (NNW) 1,415 4.1 -11.7°
Drops below altitude 10° 19:33:01 10° 7° (N) 1,694 3.9 -12.0°
Sets 19:35:53 0° 32° (NNE) 2,560 4.6 -12.5°
